MSR4318 HECA-OERS

Flight info

Callsign MSR4318
Flight time 1h 25m
Altitude 37000
Route SOLAM A727 SEMRU M872 EVANO J852 KULKI
Aircraft B738/M-SDE2E3FGHIRWXY/LB1

Departure

Time 2026-04-30 12:03
Airport Cairo International Airport (HECA)

Arrival

Time 2026-04-30 13:28
Airport Red Sea International Airport (OERS)
Time Latitude Longitude Altitude Speed Heading
2026-04-30 11:41 30.11189 31.40351 387 ft 0 kts 226°
2026-04-30 11:50 30.11190 31.40351 387 ft 0 kts 226°
2026-04-30 11:52 30.11189 31.40351 387 ft 0 kts 226°
2026-04-30 11:52 30.11197 31.40359 387 ft 2 kts 219°
2026-04-30 11:52 30.11207 31.40371 387 ft 2 kts 229°
2026-04-30 11:52 30.11216 31.40382 387 ft 0 kts 225°
2026-04-30 11:53 30.11225 31.40391 387 ft 2 kts 209°
2026-04-30 11:53 30.11239 31.40397 387 ft 2 kts 187°
2026-04-30 11:53 30.11254 31.40396 387 ft 2 kts 164°
2026-04-30 11:53 30.11266 31.40390 387 ft 1 kts 143°
2026-04-30 11:54 30.11271 31.40385 387 ft 1 kts 138°
2026-04-30 11:54 30.11272 31.40384 387 ft 0 kts 139°
2026-04-30 11:56 30.11249 31.40406 387 ft 8 kts 141°
2026-04-30 11:56 30.11184 31.40470 387 ft 16 kts 139°
2026-04-30 11:56 30.11097 31.40556 387 ft 16 kts 139°
2026-04-30 11:56 30.11015 31.40626 387 ft 10 kts 172°
2026-04-30 11:57 30.10966 31.40594 387 ft 7 kts 227°
2026-04-30 11:57 30.10922 31.40535 387 ft 11 kts 229°
2026-04-30 11:57 30.10858 31.40450 387 ft 15 kts 229°
2026-04-30 11:57 30.10780 31.40349 387 ft 18 kts 229°
2026-04-30 11:58 30.10691 31.40232 387 ft 20 kts 228°
2026-04-30 11:58 30.10594 31.40098 387 ft 22 kts 234°
2026-04-30 11:58 30.10486 31.39961 387 ft 23 kts 229°
2026-04-30 11:58 30.10382 31.39823 387 ft 22 kts 229°
2026-04-30 11:59 30.10279 31.39688 387 ft 21 kts 229°
2026-04-30 11:59 30.10185 31.39575 387 ft 16 kts 204°
2026-04-30 11:59 30.10090 31.39625 387 ft 14 kts 141°
2026-04-30 11:59 30.10030 31.39685 387 ft 7 kts 136°
2026-04-30 12:00 30.10021 31.39695 387 ft 0 kts 131°
2026-04-30 12:01 30.10011 31.39712 387 ft 5 kts 119°
2026-04-30 12:01 30.09999 31.39772 387 ft 10 kts 90°
2026-04-30 12:01 30.10003 31.39868 387 ft 10 kts 77°
2026-04-30 12:01 30.10022 31.39899 387 ft 0 kts 48°
2026-04-30 12:02 30.10064 31.39953 387 ft 36 kts 49°
2026-04-30 12:02 30.10401 31.40399 388 ft 109 kts 48°
2026-04-30 12:03 30.11050 31.41251 390 ft 168 kts 46°
2026-04-30 12:03 30.12578 31.43469 1638 ft 184 kts 56°
2026-04-30 12:03 30.13108 31.44841 2213 ft 199 kts 73°
2026-04-30 12:04 30.13199 31.46533 2581 ft 223 kts 97°
2026-04-30 12:04 30.12709 31.48125 3419 ft 218 kts 119°
2026-04-30 12:04 30.11737 31.49453 4130 ft 222 kts 141°
2026-04-30 12:04 30.10322 31.50366 4395 ft 248 kts 161°
2026-04-30 12:05 30.08620 31.50656 5126 ft 248 kts 182°
2026-04-30 12:05 30.06900 31.50497 5687 ft 261 kts 187°
2026-04-30 12:05 30.04976 31.50170 5571 ft 302 kts 190°
2026-04-30 12:05 30.02919 31.49757 6475 ft 299 kts 191°
2026-04-30 12:06 30.00969 31.49253 7703 ft 284 kts 198°
2026-04-30 12:06 29.99042 31.48655 8513 ft 286 kts 196°
2026-04-30 12:06 29.97070 31.48237 9247 ft 293 kts 189°
2026-04-30 12:06 29.95005 31.48142 9960 ft 300 kts 181°
2026-04-30 12:07 29.92910 31.48317 10514 ft 312 kts 176°
2026-04-30 12:07 29.90668 31.48641 10963 ft 328 kts 175°
2026-04-30 12:07 29.88413 31.49011 11377 ft 343 kts 174°
2026-04-30 12:07 29.86000 31.49404 11770 ft 358 kts 174°
2026-04-30 12:08 29.83461 31.49804 12116 ft 375 kts 175°
2026-04-30 12:08 29.80835 31.50205 12609 ft 386 kts 174°
2026-04-30 12:08 29.78134 31.50612 13243 ft 393 kts 175°
2026-04-30 12:08 29.75385 31.51025 13931 ft 399 kts 175°
2026-04-30 12:09 29.72611 31.51441 14615 ft 405 kts 175°
2026-04-30 12:09 29.69823 31.51924 15434 ft 408 kts 172°
2026-04-30 12:09 29.67042 31.52624 16178 ft 413 kts 168°
2026-04-30 12:09 29.64214 31.53504 16877 ft 419 kts 166°
2026-04-30 12:10 29.61404 31.54460 17523 ft 426 kts 166°
2026-04-30 12:10 29.58570 31.55446 18229 ft 429 kts 166°
2026-04-30 12:10 29.55692 31.56442 18892 ft 434 kts 167°
2026-04-30 12:10 29.52749 31.57442 19538 ft 439 kts 167°
2026-04-30 12:11 29.49817 31.58421 20224 ft 442 kts 168°
2026-04-30 12:11 29.46862 31.59394 20852 ft 446 kts 168°
2026-04-30 12:11 29.43865 31.60374 21470 ft 449 kts 168°
2026-04-30 12:11 29.40814 31.61368 22111 ft 452 kts 168°
2026-04-30 12:12 29.37777 31.62355 22660 ft 457 kts 169°
2026-04-30 12:12 29.34711 31.63350 23218 ft 461 kts 169°
2026-04-30 12:12 29.31621 31.64352 23806 ft 464 kts 169°
2026-04-30 12:12 29.28486 31.65369 24359 ft 468 kts 170°
2026-04-30 12:13 29.25335 31.66391 24904 ft 472 kts 170°
2026-04-30 12:13 29.22130 31.67431 25495 ft 474 kts 170°
2026-04-30 12:13 29.18977 31.68455 25983 ft 478 kts 170°
2026-04-30 12:13 29.15750 31.69501 26495 ft 481 kts 169°
2026-04-30 12:14 29.12514 31.70550 26985 ft 484 kts 170°
2026-04-30 12:14 29.09251 31.71606 27406 ft 489 kts 169°
2026-04-30 12:14 29.05971 31.72668 27890 ft 492 kts 170°
2026-04-30 12:14 29.02664 31.73739 28400 ft 494 kts 169°
2026-04-30 12:15 28.99346 31.74812 28797 ft 498 kts 169°
2026-04-30 12:15 28.95972 31.75899 29277 ft 500 kts 170°
2026-04-30 12:15 28.92647 31.76967 30054 ft 494 kts 170°
2026-04-30 12:15 28.89345 31.78024 30686 ft 491 kts 171°
2026-04-30 12:16 28.86220 31.79021 31145 ft 491 kts 171°
2026-04-30 12:16 28.82913 31.80070 31593 ft 491 kts 171°
2026-04-30 12:16 28.79601 31.81118 31994 ft 492 kts 171°
2026-04-30 12:16 28.76282 31.82167 32475 ft 491 kts 171°
2026-04-30 12:17 28.69695 31.84254 33359 ft 490 kts 172°
2026-04-30 12:17 28.66408 31.85295 33736 ft 490 kts 172°
2026-04-30 12:17 28.63141 31.86331 34281 ft 487 kts 172°
2026-04-30 12:18 28.59894 31.87363 34661 ft 483 kts 172°
2026-04-30 12:18 28.56645 31.88393 35063 ft 481 kts 172°
2026-04-30 12:18 28.53394 31.89421 35393 ft 481 kts 172°
2026-04-30 12:18 28.50148 31.90445 35740 ft 481 kts 172°
2026-04-30 12:19 28.46900 31.91466 36109 ft 481 kts 172°
2026-04-30 12:19 28.43661 31.92486 36552 ft 478 kts 173°
2026-04-30 12:19 28.40430 31.93506 36988 ft 476 kts 173°
2026-04-30 12:19 28.37179 31.94529 37028 ft 478 kts 173°
2026-04-30 12:20 28.30763 31.96550 37028 ft 472 kts 173°
2026-04-30 12:20 28.24343 31.98564 37027 ft 474 kts 173°
2026-04-30 12:21 28.17943 32.00571 37030 ft 474 kts 173°
2026-04-30 12:21 28.11545 32.02583 37028 ft 475 kts 172°
2026-04-30 12:22 28.05401 32.05716 37032 ft 498 kts 152°
2026-04-30 12:22 28.02699 32.08312 37036 ft 509 kts 139°
2026-04-30 12:22 28.00474 32.11417 37037 ft 518 kts 129°
2026-04-30 12:23 27.96690 32.18404 37050 ft 522 kts 123°
2026-04-30 12:23 27.93220 32.25655 37042 ft 524 kts 122°
2026-04-30 12:24 27.89893 32.32781 37039 ft 524 kts 121°
2026-04-30 12:24 27.86445 32.40065 37025 ft 526 kts 122°
2026-04-30 12:25 27.82964 32.47307 37024 ft 525 kts 123°
2026-04-30 12:25 27.79453 32.54545 37011 ft 525 kts 123°
2026-04-30 12:26 27.75934 32.61771 37010 ft 526 kts 123°
2026-04-30 12:26 27.72401 32.69013 36969 ft 526 kts 123°
2026-04-30 12:27 27.68859 32.76273 36992 ft 524 kts 123°
2026-04-30 12:27 27.65348 32.83458 36990 ft 525 kts 123°
2026-04-30 12:28 27.61800 32.90692 36977 ft 525 kts 123°
2026-04-30 12:28 27.58283 32.97861 36997 ft 524 kts 123°
2026-04-30 12:29 27.54740 33.05074 36985 ft 524 kts 123°
2026-04-30 12:29 27.51184 33.12302 36976 ft 525 kts 123°
2026-04-30 12:30 27.47638 33.19495 36960 ft 525 kts 123°
2026-04-30 12:30 27.44096 33.26671 36945 ft 525 kts 123°
2026-04-30 12:31 27.40524 33.33895 36947 ft 528 kts 123°
2026-04-30 12:31 27.36928 33.41139 36942 ft 528 kts 124°
2026-04-30 12:32 27.33350 33.48343 36939 ft 526 kts 124°
2026-04-30 12:32 27.29770 33.55544 36926 ft 529 kts 123°
2026-04-30 12:33 27.26133 33.62843 36913 ft 528 kts 124°
2026-04-30 12:33 27.22543 33.70044 36908 ft 526 kts 124°
2026-04-30 12:34 27.18943 33.77249 36912 ft 529 kts 124°
2026-04-30 12:34 27.15715 33.84688 36904 ft 531 kts 117°
2026-04-30 12:35 27.12953 33.92399 36888 ft 536 kts 115°
2026-04-30 12:35 27.10289 34.00247 36876 ft 534 kts 115°
2026-04-30 12:36 27.07614 34.08023 36866 ft 536 kts 115°
2026-04-30 12:36 27.04899 34.15747 36860 ft 535 kts 116°
2026-04-30 12:37 27.02122 34.23526 36864 ft 537 kts 116°
2026-04-30 12:37 26.99344 34.31251 36841 ft 537 kts 116°
2026-04-30 12:38 26.96547 34.39010 36896 ft 537 kts 116°
2026-04-30 12:38 26.93744 34.46777 36678 ft 536 kts 115°
2026-04-30 12:39 26.92342 34.50660 36434 ft 533 kts 116°
2026-04-30 12:39 26.90949 34.54512 36190 ft 530 kts 115°
2026-04-30 12:39 26.89583 34.58289 35954 ft 528 kts 115°
2026-04-30 12:39 26.88185 34.62149 35717 ft 528 kts 115°
2026-04-30 12:40 26.86807 34.65948 35470 ft 527 kts 115°
2026-04-30 12:40 26.85439 34.69723 35239 ft 525 kts 115°
2026-04-30 12:40 26.84048 34.73556 34987 ft 525 kts 114°
2026-04-30 12:40 26.82677 34.77329 34748 ft 526 kts 114°
2026-04-30 12:41 26.81291 34.81139 34498 ft 526 kts 114°
2026-04-30 12:41 26.79915 34.84917 34267 ft 525 kts 114°
2026-04-30 12:41 26.78542 34.88685 34016 ft 524 kts 114°
2026-04-30 12:41 26.77162 34.92470 33775 ft 523 kts 114°
2026-04-30 12:42 26.75796 34.96211 33527 ft 520 kts 113°
2026-04-30 12:42 26.74428 34.99959 33275 ft 521 kts 114°
2026-04-30 12:42 26.73064 35.03689 33025 ft 522 kts 114°
2026-04-30 12:42 26.71682 35.07464 32776 ft 521 kts 114°
2026-04-30 12:43 26.70302 35.11231 32527 ft 519 kts 114°
2026-04-30 12:43 26.68952 35.14914 32285 ft 520 kts 114°
2026-04-30 12:43 26.67581 35.18653 32030 ft 518 kts 114°
2026-04-30 12:43 26.66209 35.22389 31789 ft 520 kts 114°
2026-04-30 12:44 26.64828 35.26144 31541 ft 518 kts 114°
2026-04-30 12:44 26.63473 35.29826 31295 ft 515 kts 114°
2026-04-30 12:44 26.62091 35.33577 31049 ft 518 kts 114°
2026-04-30 12:44 26.60724 35.37284 30805 ft 516 kts 114°
2026-04-30 12:45 26.59355 35.40995 30557 ft 512 kts 114°
2026-04-30 12:45 26.58006 35.44648 30315 ft 510 kts 114°
2026-04-30 12:45 26.56669 35.48265 30076 ft 507 kts 114°
2026-04-30 12:45 26.55312 35.51904 29833 ft 506 kts 114°
2026-04-30 12:46 26.53938 35.55534 29586 ft 503 kts 114°
2026-04-30 12:46 26.52572 35.59113 29320 ft 501 kts 115°
2026-04-30 12:46 26.51211 35.62658 29057 ft 499 kts 115°
2026-04-30 12:46 26.49842 35.66221 28790 ft 496 kts 115°
2026-04-30 12:47 26.48475 35.69776 28524 ft 493 kts 115°
2026-04-30 12:47 26.47158 35.73199 28269 ft 494 kts 115°
2026-04-30 12:47 26.45851 35.76599 28009 ft 491 kts 115°
2026-04-30 12:47 26.44515 35.80072 27750 ft 489 kts 115°
2026-04-30 12:48 26.43179 35.83546 27484 ft 487 kts 115°
2026-04-30 12:48 26.41831 35.87052 27218 ft 485 kts 115°
2026-04-30 12:48 26.40755 35.89848 27004 ft 482 kts 115°
2026-04-30 12:48 26.39430 35.93290 26742 ft 481 kts 115°
2026-04-30 12:49 26.38106 35.96725 26475 ft 481 kts 115°
2026-04-30 12:49 26.36787 36.00148 26210 ft 478 kts 115°
2026-04-30 12:49 26.35473 36.03553 25949 ft 477 kts 115°
2026-04-30 12:49 26.34161 36.06949 25684 ft 474 kts 115°
2026-04-30 12:50 26.32870 36.10289 25420 ft 472 kts 115°
2026-04-30 12:50 26.31576 36.13636 25160 ft 471 kts 115°
2026-04-30 12:50 26.30263 36.17028 24894 ft 470 kts 115°
2026-04-30 12:50 26.28981 36.20340 24637 ft 468 kts 115°
2026-04-30 12:51 26.27676 36.23706 24373 ft 467 kts 115°
2026-04-30 12:51 26.26399 36.26998 24114 ft 465 kts 115°
2026-04-30 12:51 26.25103 36.30335 23845 ft 464 kts 115°
2026-04-30 12:51 26.23843 36.33579 23586 ft 461 kts 115°
2026-04-30 12:52 26.22558 36.36883 23318 ft 459 kts 115°
2026-04-30 12:52 26.21295 36.40128 23055 ft 458 kts 115°
2026-04-30 12:52 26.20020 36.43400 22795 ft 455 kts 115°
2026-04-30 12:52 26.18897 36.46278 22566 ft 453 kts 115°
2026-04-30 12:53 26.17633 36.49476 22314 ft 453 kts 116°
2026-04-30 12:53 26.16236 36.52637 22059 ft 449 kts 119°
2026-04-30 12:53 26.14771 36.55677 21803 ft 445 kts 120°
2026-04-30 12:53 26.13456 36.58299 21580 ft 443 kts 121°
2026-04-30 12:54 26.11956 36.61253 21325 ft 442 kts 121°
2026-04-30 12:54 26.10449 36.64217 21071 ft 439 kts 121°
2026-04-30 12:54 26.08943 36.67190 20806 ft 437 kts 121°
2026-04-30 12:54 26.07462 36.70131 20544 ft 434 kts 121°
2026-04-30 12:55 26.05993 36.73061 20289 ft 432 kts 121°
2026-04-30 12:55 26.04535 36.75983 20025 ft 430 kts 121°
2026-04-30 12:55 26.03085 36.78893 19773 ft 429 kts 121°
2026-04-30 12:55 26.01645 36.81790 19519 ft 427 kts 121°
2026-04-30 12:56 26.00208 36.84684 19265 ft 424 kts 121°
2026-04-30 12:56 25.98798 36.87528 18891 ft 415 kts 121°
2026-04-30 12:56 25.97411 36.90326 18556 ft 411 kts 121°
2026-04-30 12:56 25.96034 36.93102 18304 ft 415 kts 120°
2026-04-30 12:57 25.94634 36.95925 18055 ft 413 kts 120°
2026-04-30 12:57 25.93259 36.98698 17738 ft 406 kts 121°
2026-04-30 12:57 25.91903 37.01431 17198 ft 403 kts 120°
2026-04-30 12:57 25.90544 37.04169 16563 ft 402 kts 120°
2026-04-30 12:58 25.89192 37.06885 15977 ft 400 kts 120°
2026-04-30 12:58 25.87930 37.09420 15756 ft 388 kts 120°
2026-04-30 12:58 25.86639 37.12014 15577 ft 375 kts 120°
2026-04-30 12:58 25.85399 37.14505 15421 ft 362 kts 120°
2026-04-30 12:59 25.84106 37.16816 15278 ft 348 kts 128°
2026-04-30 12:59 25.82469 37.18726 15070 ft 333 kts 148°
2026-04-30 12:59 25.80395 37.19749 14465 ft 330 kts 173°
2026-04-30 12:59 25.78113 37.19746 13560 ft 336 kts 194°
2026-04-30 13:00 25.75904 37.18795 12381 ft 349 kts 214°
2026-04-30 13:00 25.74016 37.17047 11297 ft 360 kts 227°
2026-04-30 13:00 25.72120 37.15199 10303 ft 370 kts 213°
2026-04-30 13:00 25.69745 37.14182 9623 ft 367 kts 189°
2026-04-30 13:01 25.67265 37.14264 9154 ft 347 kts 167°
2026-04-30 13:01 25.65048 37.15189 8703 ft 329 kts 150°
2026-04-30 13:01 25.63209 37.16581 8260 ft 314 kts 140°
2026-04-30 13:01 25.61711 37.18235 7838 ft 300 kts 124°
2026-04-30 13:02 25.60805 37.20261 7490 ft 287 kts 106°
2026-04-30 13:02 25.60205 37.22379 7040 ft 287 kts 111°
2026-04-30 13:02 25.59180 37.24258 6650 ft 286 kts 130°
2026-04-30 13:02 25.57729 37.25720 6282 ft 283 kts 144°
2026-04-30 13:03 25.56055 37.26854 5885 ft 280 kts 152°
2026-04-30 13:03 25.54281 37.27749 5493 ft 276 kts 163°
2026-04-30 13:03 25.52392 37.27994 5125 ft 270 kts 187°
2026-04-30 13:03 25.50688 37.27322 4863 ft 260 kts 215°
2026-04-30 13:04 25.49463 37.25907 4530 ft 254 kts 238°
2026-04-30 13:04 25.48551 37.24236 4226 ft 248 kts 240°
2026-04-30 13:04 25.47748 37.22599 3947 ft 235 kts 247°
2026-04-30 13:04 25.47350 37.20953 3693 ft 221 kts 272°
2026-04-30 13:05 25.47765 37.19405 3428 ft 208 kts 302°
2026-04-30 13:05 25.48734 37.18276 3061 ft 203 kts 322°
2026-04-30 13:05 25.49915 37.17428 2690 ft 198 kts 327°
2026-04-30 13:06 25.52084 37.15992 2182 ft 164 kts 326°
2026-04-30 13:06 25.53032 37.15364 1984 ft 151 kts 326°
2026-04-30 13:06 25.53935 37.14763 1817 ft 155 kts 326°
2026-04-30 13:06 25.54861 37.14149 1549 ft 150 kts 326°
2026-04-30 13:07 25.55765 37.13552 1411 ft 152 kts 325°
2026-04-30 13:07 25.56671 37.12950 1196 ft 151 kts 325°
2026-04-30 13:07 25.57581 37.12349 1015 ft 152 kts 325°
2026-04-30 13:07 25.58495 37.11744 816 ft 151 kts 325°
2026-04-30 13:08 25.59395 37.11147 622 ft 151 kts 324°
2026-04-30 13:08 25.60312 37.10540 416 ft 150 kts 325°
2026-04-30 13:08 25.61222 37.09951 228 ft 151 kts 324°
2026-04-30 13:08 25.62075 37.09364 158 ft 130 kts 324°
2026-04-30 13:09 25.62935 37.08826 256 ft 149 kts 329°
2026-04-30 13:09 25.63868 37.08350 585 ft 161 kts 332°
2026-04-30 13:09 25.64916 37.07637 588 ft 181 kts 322°
2026-04-30 13:09 25.65970 37.06962 699 ft 164 kts 332°
2026-04-30 13:10 25.67091 37.06522 784 ft 186 kts 342°
2026-04-30 13:10 25.68309 37.06126 1592 ft 186 kts 338°
2026-04-30 13:10 25.69650 37.05963 2205 ft 206 kts
2026-04-30 13:10 25.70912 37.06759 2829 ft 224 kts 48°
2026-04-30 13:11 25.71532 37.08356 3531 ft 232 kts 77°
2026-04-30 13:11 25.71824 37.10120 3923 ft 235 kts 78°
2026-04-30 13:11 25.72231 37.11906 4012 ft 237 kts 72°
2026-04-30 13:12 25.73054 37.14580 4015 ft 232 kts 69°
2026-04-30 13:12 25.73578 37.16257 4011 ft 233 kts 73°
2026-04-30 13:13 25.73710 37.19885 4016 ft 236 kts 94°
2026-04-30 13:13 25.73579 37.21674 4015 ft 235 kts 93°
2026-04-30 13:13 25.73400 37.25332 4022 ft 235 kts 92°
2026-04-30 13:14 25.73296 37.27114 4019 ft 233 kts 100°
2026-04-30 13:14 25.72567 37.28708 4026 ft 233 kts 137°
2026-04-30 13:14 25.69605 37.30023 4021 ft 230 kts 167°
2026-04-30 13:15 25.68035 37.30479 4025 ft 230 kts 166°
2026-04-30 13:15 25.64933 37.31498 4025 ft 232 kts 164°
2026-04-30 13:15 25.63392 37.32016 4023 ft 232 kts 165°
2026-04-30 13:16 25.61830 37.32538 3897 ft 228 kts 165°
2026-04-30 13:16 25.60326 37.33040 3659 ft 224 kts 166°
2026-04-30 13:16 25.58849 37.33532 3428 ft 221 kts 166°
2026-04-30 13:17 25.55940 37.34498 3023 ft 211 kts 165°
2026-04-30 13:17 25.54562 37.34956 3017 ft 197 kts 166°
2026-04-30 13:17 25.51976 37.35815 3026 ft 192 kts 166°
2026-04-30 13:18 25.50693 37.36242 3030 ft 187 kts 166°
2026-04-30 13:18 25.48229 37.37060 3039 ft 183 kts 165°
2026-04-30 13:18 25.47011 37.37465 3031 ft 183 kts 166°
2026-04-30 13:19 25.45767 37.37808 3031 ft 181 kts 182°
2026-04-30 13:19 25.44639 37.37379 3035 ft 172 kts 229°
2026-04-30 13:19 25.44092 37.36242 3034 ft 167 kts 259°
2026-04-30 13:19 25.43865 37.34989 3029 ft 166 kts 258°
2026-04-30 13:20 25.43533 37.33754 3028 ft 168 kts 253°
2026-04-30 13:20 25.43144 37.32521 3026 ft 167 kts 253°
2026-04-30 13:20 25.42770 37.31294 3023 ft 167 kts 253°
2026-04-30 13:20 25.42406 37.30076 3022 ft 167 kts 253°
2026-04-30 13:21 25.42033 37.28835 3020 ft 168 kts 253°
2026-04-30 13:21 25.41664 37.27618 3023 ft 167 kts 253°
2026-04-30 13:21 25.41289 37.26379 3026 ft 168 kts 254°
2026-04-30 13:22 25.41038 37.23902 3014 ft 165 kts 296°
2026-04-30 13:22 25.41821 37.22977 3028 ft 168 kts 322°
2026-04-30 13:22 25.43721 37.21545 3011 ft 168 kts 325°
2026-04-30 13:23 25.44720 37.20863 2993 ft 168 kts 326°
2026-04-30 13:23 25.46723 37.19533 2991 ft 167 kts 327°
2026-04-30 13:24 25.48706 37.18221 2985 ft 164 kts 327°
2026-04-30 13:24 25.50687 37.16912 2526 ft 157 kts 327°
2026-04-30 13:25 25.52520 37.15700 2122 ft 153 kts 326°
2026-04-30 13:25 25.54328 37.14502 1724 ft 152 kts 326°
2026-04-30 13:26 25.57042 37.12706 1126 ft 150 kts 326°
2026-04-30 13:26 25.58835 37.11518 746 ft 151 kts 325°
2026-04-30 13:27 25.60653 37.10339 315 ft 149 kts 324°
2026-04-30 13:28 25.62596 37.09029 158 ft 58 kts 328°
2026-04-30 13:28 25.63213 37.08619 158 ft 45 kts 328°
2026-04-30 13:28 25.63459 37.08457 158 ft 26 kts 329°
2026-04-30 13:29 25.63488 37.08272 158 ft 11 kts 232°
2026-04-30 13:29 25.63354 37.08317 157 ft 13 kts 148°
2026-04-30 13:30 25.62984 37.08564 158 ft 14 kts 149°
2026-04-30 13:31 25.62848 37.08471 157 ft 11 kts 210°
2026-04-30 13:31 25.62699 37.08493 157 ft 4 kts 213°
2026-04-30 13:32 25.62683 37.08482 157 ft 0 kts 213°